This is the latest recevied weather packets stored in our database for station/object K5RWS. If no packets are shown the sender has not sent any weather packets the latest 10 day(s).
| Time | Temp. | Humidity | Pressure | Rain* | Wind** | Luminosity | Snow |
|---|---|---|---|---|---|---|---|
| 1777931396 | 24.44° C | 14% | 1012.9 hPa | 0 mm | - | 267 W/m² | - |
| 1777931092 | 24.44° C | 14% | 1012.8 hPa | 0 mm | - | 298 W/m² | - |
| 1777930789 | 24.44° C | 14% | 1012.9 hPa | 0 mm | - | 307 W/m² | - |
| 1777930484 | 24.44° C | 15% | 1013.1 hPa | 0 mm | - | 312 W/m² | - |
| 1777930182 | 23.89° C | 15% | 1013.1 hPa | 0 mm | - | 350 W/m² | - |
| 1777929878 | 24.44° C | 15% | 1013.2 hPa | 0 mm | - | 383 W/m² | - |
| 1777929576 | 23.89° C | 15% | 1013.2 hPa | 0 mm | - | 410 W/m² | - |
| 1777929272 | 24.44° C | 16% | 1013.1 hPa | 0 mm | - | 431 W/m² | - |
| 1777928970 | 24.44° C | 16% | 1013.3 hPa | 0 mm | - | 455 W/m² | - |
| 1777928666 | 24.44° C | 16% | 1013.5 hPa | 0 mm | - | 502 W/m² | - |
| 1777928363 | 23.89° C | 16% | 1013.6 hPa | 0 mm | - | 557 W/m² | - |
| 1777928061 | 23.89° C | 17% | 1013.9 hPa | 0 mm | - | 399 W/m² | - |
| 1777927759 | 23.89° C | 16% | 1014.2 hPa | 0 mm | - | 524 W/m² | - |
| 1777927457 | 23.89° C | 17% | 1014.3 hPa | 0 mm | - | 484 W/m² | - |
| 1777927156 | 23.89° C | 17% | 1014.2 hPa | 0 mm | - | 470 W/m² | - |
| 1777926853 | 23.33° C | 17% | 1014.5 hPa | 0 mm | - | 524 W/m² | - |
| 1777926549 | 22.78° C | 18% | 1014.6 hPa | 0 mm | - | 458 W/m² | - |
| 1777926246 | 23.33° C | 17% | 1014.8 hPa | 0 mm | - | 520 W/m² | - |
| 1777925942 | 23.33° C | 17% | 1014.7 hPa | 0 mm | - | 577 W/m² | - |
| 1777925640 | 23.89° C | 16% | 1014.8 hPa | 0 mm | - | 640 W/m² | - |
| 1777925337 | 23.89° C | 18% | 1014.9 hPa | 0 mm | - | 602 W/m² | - |
| 1777925034 | 23.33° C | 17% | 1014.7 hPa | 0 mm | - | 692 W/m² | - |
| 1777924730 | 23.33° C | 17% | 1014.9 hPa | 0 mm | - | 660 W/m² | - |
| 1777924426 | 23.33° C | 17% | 1014.9 hPa | 0 mm | - | 757 W/m² | - |
| 1777924123 | 22.78° C | 18% | 1015.2 hPa | 0 mm | - | 597 W/m² | - |
* Rain latest hour (hover to see other rain measurements)
** Current wind speed in m/s (hover to see current wind gust speed)